Time,TemperatureF,DewpointF,PressureIn,WindDirection,WindDirectionDegrees,WindSpeedMPH,WindSpeedGustMPH,Humidity,HourlyPrecipIn,Conditions,Clouds,dailyrainin,SoftwareType,DateUTC
2012-11-27 09:50:00,79.5,74.9,30.05,WSW,256,14.0,14.0,86,0.00,CLR,,0.00,WeatherDisplay:10.37,2012-11-27 15:50:00,
2012-11-27 09:51:00,79.5,74.9,30.05,West,262,11.5,12.0,86,0.00,CLR,,0.00,WeatherDisplay:10.37,2012-11-27 15:51:00,
2012-11-27 09:56:00,78.8,74.6,30.05,WSW,252,6.9,6.9,87,0.00,CLR,,0.00,WeatherDisplay:10.37,2012-11-27 15:56:00,
2012-11-27 10:01:00,78.3,75.1,30.05,WSW,257,10.4,10.4,90,0.01,RA,,0.01,WeatherDisplay:10.37,2012-11-27 16:01:00,
2012-11-27 10:06:00,78.0,75.2,30.05,NW,307,6.9,6.9,91,0.01,RA,,0.01,WeatherDisplay:10.37,2012-11-27 16:06:00,
2012-11-27 10:11:00,77.8,75.3,30.05,WSW,255,6.9,6.9,92,0.01,CLR,,0.01,WeatherDisplay:10.37,2012-11-27 16:11:00,
2012-11-27 10:16:00,77.6,74.8,30.05,WSW,246,6.9,6.9,91,0.01,CLR,,0.01,WeatherDisplay:10.37,2012-11-27 16:16:00,
2012-11-27 10:21:00,77.3,74.5,30.05,WSW,240,6.9,6.9,91,0.01,CLR,,0.01,WeatherDisplay:10.37,2012-11-27 16:21:00,
2012-11-27 10:26:00,77.3,74.5,30.04,WSW,246,5.0,5.0,91,0.01,CLR,,0.01,WeatherDisplay:10.37,2012-11-27 16:26:00,
2012-11-27 10:31:00,77.4,74.6,30.04,WSW,246,8.1,8.1,91,0.01,CLR,,0.01,WeatherDisplay:10.37,2012-11-27 16:31:00,
2012-11-27 10:36:00,77.5,74.7,30.04,SSW,210,8.0,8.0,91,0.01,CLR,,0.01,WeatherDisplay:10.37,2012-11-27 16:36:00,
2012-11-27 10:41:00,77.6,74.8,30.04,South,188,9.2,9.2,91,0.01,CLR,,0.01,WeatherDisplay:10.37,2012-11-27 16:41:00,
2012-11-27 10:46:00,77.7,74.9,30.04,West,278,6.9,6.9,91,0.01,CLR,,0.01,WeatherDisplay:10.37,2012-11-27 16:46:00,
2012-11-27 10:51:00,77.6,74.4,30.04,WSW,255,6.0,6.0,90,0.01,CLR,,0.01,WeatherDisplay:10.37,2012-11-27 16:51:00,
2012-11-27 10:56:00,77.7,74.5,30.03,WSW,254,6.0,6.0,90,0.01,CLR,,0.01,WeatherDisplay:10.37,2012-11-27 16:56:00,
2012-11-27 11:01:00,77.8,75.0,30.03,WSW,247,4.6,4.6,91,0.01,RA,,0.02,WeatherDisplay:10.37,2012-11-27 17:01:00,
2012-11-27 11:06:00,77.8,74.6,30.03,WNW,290,8.1,8.1,90,0.03,RA,,0.04,WeatherDisplay:10.37,2012-11-27 17:06:00,
2012-11-27 11:11:00,77.8,75.0,30.03,WSW,249,8.1,8.1,91,0.03,RA,,0.04,WeatherDisplay:10.37,2012-11-27 17:11:00,
2012-11-27 11:16:00,77.8,75.0,30.03,South,180,6.9,6.9,91,0.03,,,0.04,WeatherDisplay:10.37,2012-11-27 17:16:00,
2012-11-27 11:21:00,77.8,75.0,30.03,WSW,257,5.8,5.8,91,0.04,RA,,0.05,WeatherDisplay:10.37,2012-11-27 17:21:00,
2012-11-27 11:26:00,77.9,75.4,30.02,SSE,153,5.8,5.8,92,0.05,RA,,0.06,WeatherDisplay:10.37,2012-11-27 17:26:00,
2012-11-27 11:31:00,77.9,75.4,30.02,WNW,302,5.8,5.8,92,0.05,RA,,0.06,WeatherDisplay:10.37,2012-11-27 17:31:00,
2012-11-27 11:36:00,77.9,75.1,30.02,SW,219,6.9,6.9,91,0.05,CLR,,0.06,WeatherDisplay:10.37,2012-11-27 17:36:00,
2012-11-27 11:41:00,78.0,75.5,30.02,WSW,245,5.0,5.0,92,0.05,CLR,,0.06,WeatherDisplay:10.37,2012-11-27 17:41:00,
2012-11-27 11:46:00,78.2,75.4,30.01,SSW,208,8.1,8.1,91,0.06,RA,,0.07,WeatherDisplay:10.37,2012-11-27 17:46:00,
2012-11-27 11:51:00,78.4,75.9,30.01,West,263,8.1,8.1,92,0.06,RA,,0.07,WeatherDisplay:10.37,2012-11-27 17:51:00,
2012-11-27 11:56:00,78.6,76.1,30.01,West,280,6.0,6.0,92,0.06,CLR,,0.07,WeatherDisplay:10.37,2012-11-27 17:56:00,
2012-11-27 12:01:00,78.8,76.3,30.00,WSW,249,7.0,7.0,92,0.05,CLR,,0.07,WeatherDisplay:10.37,2012-11-27 18:01:00,
2012-11-27 12:06:00,78.9,76.0,30.00,WSW,247,8.0,8.0,91,0.03,CLR,,0.07,WeatherDisplay:10.37,2012-11-27 18:06:00,
2012-11-27 12:11:00,78.9,75.7,30.00,West,264,8.1,8.1,90,0.03,CLR,,0.07,WeatherDisplay:10.37,2012-11-27 18:11:00,
2012-11-27 12:16:00,79.0,75.8,30.00,NW,323,6.9,6.9,90,0.03,CLR,,0.07,WeatherDisplay:10.37,2012-11-27 18:16:00,
2012-11-27 12:21:00,79.3,76.4,29.99,SW,232,5.8,5.8,91,0.02,CLR,,0.07,WeatherDisplay:10.37,2012-11-27 18:21:00,
2012-11-27 12:26:00,79.4,76.2,29.99,WSW,257,4.6,4.6,90,0.01,CLR,,0.07,WeatherDisplay:10.37,2012-11-27 18:26:00,
2012-11-27 12:31:00,79.7,76.2,29.99,WSW,240,6.9,6.9,89,0.01,CLR,,0.07,WeatherDisplay:10.37,2012-11-27 18:31:00,
2012-11-27 12:36:00,79.7,76.2,29.99,SW,218,8.1,8.1,89,0.01,CLR,,0.07,WeatherDisplay:10.37,2012-11-27 18:36:00,
2012-11-27 12:41:00,79.6,76.1,29.98,SSW,210,6.0,6.0,89,0.01,CLR,,0.07,WeatherDisplay:10.37,2012-11-27 18:41:00,
2012-11-27 12:46:00,79.7,75.8,29.98,SW,215,4.6,4.6,88,0.00,CLR,,0.07,WeatherDisplay:10.37,2012-11-27 18:46:00,
2012-11-27 12:51:00,79.7,75.8,29.98,SSW,200,5.0,5.0,88,0.00,CLR,,0.07,WeatherDisplay:10.37,2012-11-27 18:51:00,
2012-11-27 12:56:00,79.7,75.5,29.98,SSW,206,4.0,4.0,87,0.00,CLR,,0.07,WeatherDisplay:10.37,2012-11-27 18:56:00,
2012-11-27 13:01:00,79.6,75.7,29.98,SSW,195,3.5,3.5,88,0.00,CLR,,0.07,WeatherDisplay:10.37,2012-11-27 19:01:00,
2012-11-27 13:06:00,79.5,75.3,29.98,SSW,205,4.6,4.6,87,0.00,CLR,,0.07,WeatherDisplay:10.37,2012-11-27 19:06:00,
2012-11-27 13:11:00,79.6,75.7,29.98,South,178,3.0,3.0,88,0.00,CLR,,0.07,WeatherDisplay:10.37,2012-11-27 19:11:00,
2012-11-27 13:16:00,79.7,75.8,29.97,SSW,195,3.5,3.5,88,0.00,CLR,,0.07,WeatherDisplay:10.37,2012-11-27 19:16:00,
2012-11-27 13:21:00,79.7,76.2,29.97,SE,141,2.3,2.3,89,0.00,CLR,,0.07,WeatherDisplay:10.37,2012-11-27 19:21:00,
2012-11-27 13:26:00,79.6,75.7,29.97,SSW,204,1.1,1.1,88,0.00,CLR,,0.07,WeatherDisplay:10.37,2012-11-27 19:26:00,
2012-11-27 13:31:00,79.4,75.9,29.97,West,259,9.2,9.2,89,0.00,CLR,,0.07,WeatherDisplay:10.37,2012-11-27 19:31:00,
2012-11-27 13:36:00,78.9,75.4,29.97,SE,137,4.0,4.0,89,0.00,CLR,,0.07,WeatherDisplay:10.37,2012-11-27 19:36:00,
2012-11-27 13:41:00,78.4,75.2,29.97,SSE,167,3.5,3.5,90,0.00,CLR,,0.08,WeatherDisplay:10.37,2012-11-27 19:41:00,
2012-11-27 13:46:00,78.1,74.9,29.97,South,181,4.6,4.6,90,0.01,RA,,0.08,WeatherDisplay:10.37,2012-11-27 19:46:00,
2012-11-27 13:51:00,77.8,75.0,29.97,SW,223,4.0,4.0,91,0.01,RA,,0.08,WeatherDisplay:10.37,2012-11-27 19:51:00,
2012-11-27 13:56:00,77.6,75.1,29.97,SW,219,2.3,2.3,92,0.02,RA,,0.09,WeatherDisplay:10.37,2012-11-27 19:56:00,
2012-11-27 14:01:00,77.6,75.4,29.97,WSW,257,4.6,4.6,93,0.03,RA,,0.10,WeatherDisplay:10.37,2012-11-27 20:01:00,
2012-11-27 14:07:00,77.4,74.9,29.96,WSW,240,5.8,5.8,92,0.03,RA,,0.10,WeatherDisplay:10.37,2012-11-27 20:07:00,
2012-11-27 14:12:00,77.2,74.7,29.97,South,172,3.5,3.5,92,0.03,,,0.10,WeatherDisplay:10.37,2012-11-27 20:12:00,
2012-11-27 14:17:00,77.3,75.1,29.96,SSW,201,3.5,3.5,93,0.03,CLR,,0.10,WeatherDisplay:10.37,2012-11-27 20:17:00,
2012-11-27 14:22:00,77.4,75.5,29.96,SW,219,3.0,3.0,94,0.04,RA,,0.11,WeatherDisplay:10.37,2012-11-27 20:22:00,
2012-11-27 14:27:00,77.3,75.1,29.96,SW,236,3.5,3.5,93,0.04,RA,,0.11,WeatherDisplay:10.37,2012-11-27 20:27:00,
2012-11-27 14:30:00,76.6,75.1,29.99,NNW,340,5.0,16.0,95,0.18,RA,,1.61,WeatherDisplay:10.37,2012-11-27 20:30:00,
2012-11-27 14:32:00,77.2,75.0,29.96,SW,215,3.5,3.5,93,0.04,,,0.11,WeatherDisplay:10.37,2012-11-27 20:32:00,
2012-11-27 14:37:00,77.3,75.4,29.96,SSE,168,2.3,2.3,94,0.04,CLR,,0.11,WeatherDisplay:10.37,2012-11-27 20:37:00,
2012-11-27 14:42:00,77.1,74.9,29.96,SSE,164,3.5,3.5,93,0.03,CLR,,0.11,WeatherDisplay:10.37,2012-11-27 20:42:00,
2012-11-27 14:47:00,77.2,75.3,29.96,SW,214,3.5,3.5,94,0.04,RA,,0.12,WeatherDisplay:10.37,2012-11-27 20:47:00,
2012-11-27 14:52:00,77.1,75.2,29.96,South,171,4.0,4.0,94,0.06,RA,,0.14,WeatherDisplay:10.37,2012-11-27 20:52:00,
2012-11-27 14:57:00,77.0,74.8,29.96,SW,221,4.6,4.6,93,0.07,RA,,0.16,WeatherDisplay:10.37,2012-11-27 20:57:00,
2012-11-27 15:02:00,77.1,75.2,29.96,ENE,75,6.9,6.9,94,0.06,RA,,0.16,WeatherDisplay:10.37,2012-11-27 21:02:00,
2012-11-27 15:05:00,76.3,74.8,30.01,NNW,328,3.0,16.0,95,0.42,RA,,1.83,WeatherDisplay:10.37,2012-11-27 21:05:00,
2012-11-27 15:07:00,77.2,75.3,29.95,WSW,248,6.0,6.0,94,0.06,,,0.16,WeatherDisplay:10.37,2012-11-27 21:07:00,
2012-11-27 15:10:00,76.3,74.8,30.01,NW,315,3.0,16.0,95,0.22,RA,,1.83,WeatherDisplay:10.37,2012-11-27 21:10:00,
2012-11-27 15:12:00,77.4,75.5,29.96,SSW,205,8.1,8.1,94,0.06,CLR,,0.16,WeatherDisplay:10.37,2012-11-27 21:12:00,
2012-11-27 15:15:00,76.3,74.8,30.01,NW,315,3.0,16.0,95,0.00,CLR,,1.83,WeatherDisplay:10.37,2012-11-27 21:15:00,
2012-11-27 15:17:00,77.4,75.5,29.96,SW,215,10.4,10.4,94,0.06,CLR,,0.16,WeatherDisplay:10.37,2012-11-27 21:17:00,
2012-11-27 15:20:00,76.3,74.8,30.01,NW,315,3.0,16.0,95,0.00,CLR,,1.83,WeatherDisplay:10.37,2012-11-27 21:20:00,
2012-11-27 15:22:00,77.5,75.6,29.96,WSW,252,5.0,5.0,94,0.05,CLR,,0.16,WeatherDisplay:10.37,2012-11-27 21:22:00,
2012-11-27 15:25:00,76.3,74.8,30.01,NW,315,3.0,16.0,95,0.00,CLR,,1.83,WeatherDisplay:10.37,2012-11-27 21:25:00,
2012-11-27 15:27:00,77.6,75.7,29.96,West,267,6.9,6.9,94,0.05,CLR,,0.16,WeatherDisplay:10.37,2012-11-27 21:27:00,
2012-11-27 15:30:00,76.3,74.8,30.01,NW,315,3.0,16.0,95,0.00,CLR,,1.83,WeatherDisplay:10.37,2012-11-27 21:30:00,
2012-11-27 15:32:00,77.4,75.5,29.96,SW,226,4.0,4.0,94,0.05,CLR,,0.16,WeatherDisplay:10.37,2012-11-27 21:32:00,
2012-11-27 15:35:00,76.1,74.9,30.02,NW,325,3.0,11.0,96,0.36,RA,,2.19,WeatherDisplay:10.37,2012-11-27 21:35:00,
2012-11-27 15:37:00,77.4,75.5,29.96,SSW,205,6.9,6.9,94,0.05,CLR,,0.16,WeatherDisplay:10.37,2012-11-27 21:37:00,
2012-11-27 15:40:00,76.1,74.9,30.02,NNW,338,3.0,11.0,96,0.36,RA,,2.19,WeatherDisplay:10.37,2012-11-27 21:40:00,
2012-11-27 15:42:00,77.5,75.3,29.96,South,181,5.8,5.8,93,0.05,CLR,,0.16,WeatherDisplay:10.37,2012-11-27 21:42:00,
2012-11-27 15:45:00,76.1,74.9,30.02,NNW,338,3.0,11.0,96,0.00,CLR,,2.19,WeatherDisplay:10.37,2012-11-27 21:45:00,
2012-11-27 15:47:00,77.5,75.3,29.95,SW,226,3.5,3.5,93,0.04,CLR,,0.16,WeatherDisplay:10.37,2012-11-27 21:47:00,
2012-11-27 15:50:00,76.1,74.9,30.02,NNW,338,3.0,11.0,96,0.00,CLR,,2.19,WeatherDisplay:10.37,2012-11-27 21:50:00,
2012-11-27 15:52:00,77.6,75.4,29.96,SSW,203,8.1,8.1,93,0.02,CLR,,0.16,WeatherDisplay:10.37,2012-11-27 21:52:00,
2012-11-27 15:55:00,76.1,74.9,30.02,NNW,338,3.0,11.0,96,0.00,CLR,,2.19,WeatherDisplay:10.37,2012-11-27 21:55:00,
2012-11-27 15:57:00,77.9,75.7,29.96,West,269,4.6,4.6,93,0.00,CLR,,0.16,WeatherDisplay:10.37,2012-11-27 21:57:00,
2012-11-27 16:02:00,77.8,75.6,29.96,SW,217,5.8,5.8,93,0.00,CLR,,0.16,WeatherDisplay:10.37,2012-11-27 22:02:00,
2012-11-27 16:05:00,76.1,74.6,30.02,NNW,329,2.0,10.0,95,0.09,RA,,2.28,WeatherDisplay:10.37,2012-11-27 22:05:00,
2012-11-27 16:07:00,77.8,75.6,29.96,WSW,240,4.6,4.6,93,0.00,CLR,,0.16,WeatherDisplay:10.37,2012-11-27 22:07:00,
2012-11-27 16:10:00,76.1,74.6,30.02,NW,315,2.0,10.0,95,0.09,RA,,2.28,WeatherDisplay:10.37,2012-11-27 22:10:00,
2012-11-27 16:12:00,77.9,75.7,29.96,South,180,3.5,3.5,93,0.00,CLR,,0.16,WeatherDisplay:10.37,2012-11-27 22:12:00,
2012-11-27 16:15:00,76.1,74.6,30.02,NW,315,2.0,10.0,95,0.00,CLR,,2.28,WeatherDisplay:10.37,2012-11-27 22:15:00,
2012-11-27 16:17:00,77.8,75.6,29.96,WSW,250,3.5,3.5,93,0.00,CLR,,0.16,WeatherDisplay:10.37,2012-11-27 22:17:00,
2012-11-27 16:20:00,76.1,74.6,30.02,NW,315,2.0,10.0,95,0.00,CLR,,2.28,WeatherDisplay:10.37,2012-11-27 22:20:00,
2012-11-27 16:22:00,77.7,75.8,29.96,WSW,251,3.5,3.5,94,0.00,CLR,,0.16,WeatherDisplay:10.37,2012-11-27 22:22:00,
2012-11-27 16:25:00,76.1,74.6,30.02,NW,315,2.0,10.0,95,0.00,CLR,,2.28,WeatherDisplay:10.37,2012-11-27 22:25:00,
2012-11-27 16:27:00,77.7,75.5,29.97,WSW,254,4.0,4.0,93,0.00,CLR,,0.16,WeatherDisplay:10.37,2012-11-27 22:27:00,
2012-11-27 16:30:00,76.1,74.6,30.02,NW,315,2.0,10.0,95,0.00,CLR,,2.28,WeatherDisplay:10.37,2012-11-27 22:30:00,
2012-11-27 16:32:00,77.7,75.5,29.97,West,262,4.6,4.6,93,0.00,CLR,,0.16,WeatherDisplay:10.37,2012-11-27 22:32:00,
2012-11-27 16:35:00,75.6,74.1,30.03,North,356,3.0,8.0,95,0.18,RA,,2.46,WeatherDisplay:10.37,2012-11-27 22:35:00,
2012-11-27 16:37:00,77.6,75.4,29.97,West,266,4.6,4.6,93,0.00,CLR,,0.16,WeatherDisplay:10.37,2012-11-27 22:37:00,
2012-11-27 16:40:00,75.6,74.1,30.03,NNE,22,3.0,8.0,95,0.18,RA,,2.46,WeatherDisplay:10.37,2012-11-27 22:40:00,
2012-11-27 16:42:00,77.6,75.4,29.97,WSW,248,3.5,3.5,93,0.00,CLR,,0.16,WeatherDisplay:10.37,2012-11-27 22:42:00,
2012-11-27 16:45:00,75.6,74.1,30.03,NNE,22,3.0,8.0,95,0.00,CLR,,2.46,WeatherDisplay:10.37,2012-11-27 22:45:00,
2012-11-27 16:47:00,77.8,75.6,29.97,WSW,242,4.0,4.0,93,0.00,CLR,,0.16,WeatherDisplay:10.37,2012-11-27 22:47:00,
2012-11-27 16:53:00,77.9,75.7,29.97,SSW,194,3.5,3.5,93,0.00,CLR,,0.16,WeatherDisplay:10.37,2012-11-27 22:53:00,
2012-11-27 16:55:00,75.6,74.1,30.03,NNE,22,3.0,8.0,95,0.00,CLR,,2.46,WeatherDisplay:10.37,2012-11-27 22:55:00,
2012-11-27 16:58:00,78.0,75.5,29.97,West,266,3.5,3.5,92,0.00,CLR,,0.16,WeatherDisplay:10.37,2012-11-27 22:58:00,
2012-11-27 17:00:00,75.6,74.1,30.03,NNE,22,3.0,8.0,95,0.00,CLR,,2.46,WeatherDisplay:10.37,2012-11-27 23:00:00,
2012-11-27 17:03:00,78.0,75.5,29.97,WNW,293,3.5,3.5,92,0.00,CLR,,0.16,WeatherDisplay:10.37,2012-11-27 23:03:00,
2012-11-27 17:05:00,76.2,75.0,30.04,North,356,2.0,8.0,96,0.11,RA,,2.57,WeatherDisplay:10.37,2012-11-27 23:05:00,
2012-11-27 17:08:00,77.9,75.4,29.98,West,266,1.1,0.0,92,0.00,CLR,,0.16,WeatherDisplay:10.37,2012-11-27 23:08:00,
2012-11-27 17:10:00,76.2,75.0,30.04,NW,315,2.0,8.0,96,0.11,RA,,2.57,WeatherDisplay:10.37,2012-11-27 23:10:00,
2012-11-27 17:13:00,77.9,75.4,29.98,West,271,1.1,1.1,92,0.00,CLR,,0.16,WeatherDisplay:10.37,2012-11-27 23:13:00,
2012-11-27 17:15:00,76.2,75.0,30.04,NW,315,2.0,8.0,96,0.00,CLR,,2.57,WeatherDisplay:10.37,2012-11-27 23:15:00,
2012-11-27 17:18:00,77.7,75.2,29.98,West,280,1.1,1.1,92,0.00,CLR,,0.16,WeatherDisplay:10.37,2012-11-27 23:18:00,
2012-11-27 17:20:00,76.2,75.0,30.04,NW,315,2.0,8.0,96,0.00,CLR,,2.57,WeatherDisplay:10.37,2012-11-27 23:20:00,
2012-11-27 17:23:00,77.5,75.3,29.98,West,273,1.1,0.0,93,0.00,CLR,,0.16,WeatherDisplay:10.37,2012-11-27 23:23:00,
2012-11-27 17:25:00,76.2,75.0,30.04,NW,315,2.0,8.0,96,0.00,CLR,,2.57,WeatherDisplay:10.37,2012-11-27 23:25:00,
2012-11-27 17:28:00,77.4,75.2,29.98,West,281,2.3,2.3,93,0.00,CLR,,0.16,WeatherDisplay:10.37,2012-11-27 23:28:00,
2012-11-27 17:30:00,76.2,75.0,30.04,NW,315,2.0,8.0,96,0.00,CLR,,2.57,WeatherDisplay:10.37,2012-11-27 23:30:00,
2012-11-27 17:33:00,77.4,75.2,29.99,WNW,285,2.3,2.3,93,0.00,CLR,,0.16,WeatherDisplay:10.37,2012-11-27 23:33:00,
2012-11-27 17:35:00,75.7,74.2,30.05,North,360,2.0,10.0,95,0.19,RA,,2.76,WeatherDisplay:10.37,2012-11-27 23:35:00,
2012-11-27 17:38:00,77.3,75.1,29.99,West,264,2.3,2.3,93,0.00,CLR,,0.16,WeatherDisplay:10.37,2012-11-27 23:38:00,
2012-11-27 17:40:00,75.7,74.2,30.05,NE,45,2.0,10.0,95,0.19,RA,,2.76,WeatherDisplay:10.37,2012-11-27 23:40:00,
2012-11-27 17:43:00,77.3,75.1,30.00,West,266,3.5,3.5,93,0.00,CLR,,0.16,WeatherDisplay:10.37,2012-11-27 23:43:00,
2012-11-27 17:45:00,75.7,74.2,30.05,NE,45,2.0,10.0,95,0.00,CLR,,2.76,WeatherDisplay:10.37,2012-11-27 23:45:00,
2012-11-27 17:48:00,77.3,75.1,30.00,WNW,285,2.3,2.3,93,0.00,CLR,,0.16,WeatherDisplay:10.37,2012-11-27 23:48:00,
2012-11-27 17:50:00,75.7,74.2,30.05,NE,45,2.0,10.0,95,0.00,CLR,,2.76,WeatherDisplay:10.37,2012-11-27 23:50:00,
2012-11-27 17:53:00,77.3,75.1,30.00,WNW,289,2.3,2.3,93,0.00,CLR,,0.16,WeatherDisplay:10.37,2012-11-27 23:53:00,
2012-11-27 17:55:00,75.7,74.2,30.05,NE,45,2.0,10.0,95,0.00,CLR,,2.76,WeatherDisplay:10.37,2012-11-27 23:55:00,
2012-11-27 17:58:00,77.3,75.4,30.00,West,267,2.3,2.3,94,0.00,CLR,,0.16,WeatherDisplay:10.37,2012-11-27 23:58:00,
2012-11-27 18:00:00,75.7,74.2,30.05,NE,45,2.0,10.0,95,0.00,CLR,,2.76,WeatherDisplay:10.37,2012-11-28 00:00:00,
2012-11-27 18:03:00,77.3,75.1,30.00,WNW,282,1.1,1.1,93,0.00,CLR,,0.16,WeatherDisplay:10.37,2012-11-28 00:03:00,
2012-11-27 18:05:00,76.1,74.9,30.06,NNE,31,3.0,10.0,96,0.08,RA,,2.84,WeatherDisplay:10.37,2012-11-28 00:05:00,
2012-11-27 18:08:00,77.3,75.4,30.00,WSW,252,0.0,0.0,94,0.00,CLR,,0.16,WeatherDisplay:10.37,2012-11-28 00:08:00,
2012-11-27 18:10:00,76.1,74.9,30.06,NNE,22,3.0,10.0,96,0.08,RA,,2.84,WeatherDisplay:10.37,2012-11-28 00:10:00,
2012-11-27 18:13:00,77.2,75.3,30.00,WSW,255,0.0,0.0,94,0.00,CLR,,0.16,WeatherDisplay:10.37,2012-11-28 00:13:00,
2012-11-27 18:15:00,76.1,74.9,30.06,NNE,22,3.0,10.0,96,0.00,CLR,,2.84,WeatherDisplay:10.37,2012-11-28 00:15:00,
2012-11-27 18:18:00,77.2,75.3,30.00,WSW,255,1.1,0.0,94,0.00,CLR,,0.16,WeatherDisplay:10.37,2012-11-28 00:18:00,
2012-11-27 18:23:00,77.2,75.3,30.00,WSW,255,1.1,1.1,94,0.00,CLR,,0.16,WeatherDisplay:10.37,2012-11-28 00:23:00,
2012-11-27 18:25:00,76.1,74.9,30.06,NNE,22,3.0,10.0,96,0.00,CLR,,2.84,WeatherDisplay:10.37,2012-11-28 00:25:00,
2012-11-27 18:28:00,77.2,75.3,30.00,WSW,246,1.1,1.1,94,0.00,CLR,,0.16,WeatherDisplay:10.37,2012-11-28 00:28:00,
2012-11-27 18:30:00,76.1,74.9,30.06,NNE,22,3.0,10.0,96,0.00,CLR,,2.84,WeatherDisplay:10.37,2012-11-28 00:30:00,
2012-11-27 18:33:00,77.1,75.2,30.00,WSW,248,0.0,0.0,94,0.00,CLR,,0.16,WeatherDisplay:10.37,2012-11-28 00:33:00,
2012-11-27 18:38:00,77.2,75.3,30.00,West,259,1.1,1.1,94,0.00,CLR,,0.16,WeatherDisplay:10.37,2012-11-28 00:38:00,
2012-11-27 18:40:00,76.2,75.0,30.07,NNE,22,3.0,11.0,96,0.18,RA,,3.02,WeatherDisplay:10.37,2012-11-28 00:40:00,
2012-11-27 18:43:00,77.1,75.2,30.00,WSW,255,2.3,2.3,94,0.00,CLR,,0.16,WeatherDisplay:10.37,2012-11-28 00:43:00,
2012-11-27 18:45:00,76.2,75.0,30.07,NNE,22,3.0,11.0,96,0.00,CLR,,3.02,WeatherDisplay:10.37,2012-11-28 00:45:00,
2012-11-27 18:48:00,77.2,75.3,30.00,West,273,1.1,1.1,94,0.00,CLR,,0.16,WeatherDisplay:10.37,2012-11-28 00:48:00,
2012-11-27 18:50:00,76.2,75.0,30.07,NNE,22,3.0,11.0,96,0.00,CLR,,3.02,WeatherDisplay:10.37,2012-11-28 00:50:00,
2012-11-27 18:53:00,77.2,75.3,30.00,WSW,250,1.1,1.1,94,0.00,CLR,,0.16,WeatherDisplay:10.37,2012-11-28 00:53:00,
2012-11-27 18:55:00,76.2,75.0,30.07,NNE,22,3.0,11.0,96,0.00,CLR,,3.02,WeatherDisplay:10.37,2012-11-28 00:55:00,
2012-11-27 18:58:00,77.1,75.2,30.00,West,259,2.3,2.3,94,0.00,CLR,,0.16,WeatherDisplay:10.37,2012-11-28 00:58:00,
2012-11-27 19:00:00,76.2,75.0,30.07,NNE,22,3.0,11.0,96,0.00,CLR,,3.02,WeatherDisplay:10.37,2012-11-28 01:00:00,
2012-11-27 19:03:00,77.1,75.2,30.01,West,263,1.1,1.1,94,0.00,CLR,,0.16,WeatherDisplay:10.37,2012-11-28 01:03:00,
2012-11-27 19:05:00,76.5,75.0,30.09,NNE,31,2.0,8.0,95,0.07,RA,,3.09,WeatherDisplay:10.37,2012-11-28 01:05:00,
2012-11-27 19:08:00,77.0,75.1,30.01,WNW,293,2.3,2.3,94,0.00,CLR,,0.16,WeatherDisplay:10.37,2012-11-28 01:08:00,
2012-11-27 19:10:00,76.5,75.0,30.09,NE,45,2.0,8.0,95,0.07,RA,,3.09,WeatherDisplay:10.37,2012-11-28 01:10:00,
2012-11-27 19:13:00,76.9,75.0,30.01,WNW,286,1.1,1.1,94,0.00,CLR,,0.16,WeatherDisplay:10.37,2012-11-28 01:13:00,
2012-11-27 19:15:00,76.5,75.0,30.09,NE,45,2.0,8.0,95,0.00,CLR,,3.09,WeatherDisplay:10.37,2012-11-28 01:15:00,
2012-11-27 19:18:00,76.8,74.9,30.01,WNW,284,1.1,1.1,94,0.00,CLR,,0.16,WeatherDisplay:10.37,2012-11-28 01:18:00,
2012-11-27 19:20:00,76.5,75.0,30.09,NE,45,2.0,8.0,95,0.00,CLR,,3.09,WeatherDisplay:10.37,2012-11-28 01:20:00,
2012-11-27 19:23:00,76.8,74.6,30.01,West,281,2.3,2.3,93,0.00,CLR,,0.16,WeatherDisplay:10.37,2012-11-28 01:23:00,
2012-11-27 19:28:00,76.9,74.7,30.01,WNW,285,1.1,1.1,93,0.00,CLR,,0.16,WeatherDisplay:10.37,2012-11-28 01:28:00,
2012-11-27 19:30:00,76.5,75.0,30.09,NE,45,2.0,8.0,95,0.00,CLR,,3.09,WeatherDisplay:10.37,2012-11-28 01:30:00,
2012-11-27 19:33:00,76.9,74.7,30.01,WNW,284,1.1,1.1,93,0.00,CLR,,0.16,WeatherDisplay:10.37,2012-11-28 01:33:00,
2012-11-27 19:35:00,76.5,75.3,30.10,North,4,3.0,10.0,96,0.05,RA,,3.14,WeatherDisplay:10.37,2012-11-28 01:35:00,
2012-11-27 19:38:00,76.9,74.7,30.02,WNW,284,0.0,0.0,93,0.00,CLR,,0.16,WeatherDisplay:10.37,2012-11-28 01:38:00,
2012-11-27 19:40:00,76.5,75.3,30.10,NNW,338,3.0,10.0,96,0.05,RA,,3.14,WeatherDisplay:10.37,2012-11-28 01:40:00,
2012-11-27 19:43:00,76.9,74.7,30.02,WNW,284,1.1,1.1,93,0.00,CLR,,0.16,WeatherDisplay:10.37,2012-11-28 01:43:00,
2012-11-27 19:45:00,76.5,75.3,30.10,NNW,338,3.0,10.0,96,0.00,CLR,,3.14,WeatherDisplay:10.37,2012-11-28 01:45:00,
2012-11-27 19:48:00,76.9,74.7,30.02,West,277,2.3,2.3,93,0.00,CLR,,0.16,WeatherDisplay:10.37,2012-11-28 01:48:00,
2012-11-27 19:50:00,76.5,75.3,30.10,NNW,338,3.0,10.0,96,0.00,CLR,,3.14,WeatherDisplay:10.37,2012-11-28 01:50:00,
2012-11-27 19:53:00,77.0,74.8,30.02,West,266,1.1,0.0,93,0.00,CLR,,0.16,WeatherDisplay:10.37,2012-11-28 01:53:00,
2012-11-27 19:55:00,76.5,75.3,30.10,NNW,338,3.0,10.0,96,0.00,CLR,,3.14,WeatherDisplay:10.37,2012-11-28 01:55:00,
2012-11-27 19:58:00,77.0,74.8,30.02,WSW,253,2.3,2.3,93,0.00,CLR,,0.16,WeatherDisplay:10.37,2012-11-28 01:58:00,
2012-11-27 20:00:00,76.5,75.3,30.10,NNW,338,3.0,10.0,96,0.00,CLR,,3.14,WeatherDisplay:10.37,2012-11-28 02:00:00,
2012-11-27 20:03:00,77.1,74.9,30.02,WSW,250,2.3,2.3,93,0.00,CLR,,0.16,WeatherDisplay:10.37,2012-11-28 02:03:00,
2012-11-27 20:05:00,76.5,75.0,30.11,NNW,338,3.0,11.0,95,0.01,RA,,3.15,WeatherDisplay:10.37,2012-11-28 02:05:00,
2012-11-27 20:08:00,77.2,75.0,30.02,WSW,255,3.5,3.5,93,0.00,CLR,,0.16,WeatherDisplay:10.37,2012-11-28 02:08:00,
2012-11-27 20:10:00,76.5,75.0,30.11,NNW,338,3.0,11.0,95,0.01,RA,,3.15,WeatherDisplay:10.37,2012-11-28 02:10:00,
2012-11-27 20:13:00,77.3,75.1,30.02,SW,221,3.0,3.0,93,0.00,CLR,,0.16,WeatherDisplay:10.37,2012-11-28 02:13:00,
2012-11-27 20:15:00,76.5,75.0,30.11,NNW,338,3.0,11.0,95,0.00,CLR,,3.15,WeatherDisplay:10.37,2012-11-28 02:15:00,
2012-11-27 20:18:00,77.6,75.7,30.03,SW,225,8.0,8.0,94,0.00,CLR,,0.16,WeatherDisplay:10.37,2012-11-28 02:18:00,
2012-11-27 20:20:00,76.5,75.0,30.11,NNW,338,3.0,11.0,95,0.00,CLR,,3.15,WeatherDisplay:10.37,2012-11-28 02:20:00,
2012-11-27 20:23:00,78.1,76.2,30.03,SSW,208,9.0,9.0,94,0.00,CLR,,0.16,WeatherDisplay:10.37,2012-11-28 02:23:00,
2012-11-27 20:25:00,76.5,75.0,30.11,NNW,338,3.0,11.0,95,0.00,CLR,,3.15,WeatherDisplay:10.37,2012-11-28 02:25:00,
2012-11-27 20:28:00,78.4,76.5,30.03,SW,219,7.0,7.0,94,0.00,CLR,,0.16,WeatherDisplay:10.37,2012-11-28 02:28:00,
2012-11-27 20:30:00,76.5,75.0,30.11,NNW,338,3.0,11.0,95,0.00,CLR,,3.15,WeatherDisplay:10.37,2012-11-28 02:30:00,
2012-11-27 20:33:00,78.5,76.0,30.03,SW,217,9.2,9.2,92,0.00,CLR,,0.16,WeatherDisplay:10.37,2012-11-28 02:33:00,
2012-11-27 20:35:00,77.0,74.5,30.12,North,4,2.0,8.0,92,0.01,RA,,3.16,WeatherDisplay:10.37,2012-11-28 02:35:00,
2012-11-27 20:38:00,78.6,76.4,30.03,SW,218,10.4,10.4,93,0.00,CLR,,0.16,WeatherDisplay:10.37,2012-11-28 02:38:00,
2012-11-27 20:43:00,78.7,76.5,30.03,SW,214,10.0,10.0,93,0.00,CLR,,0.16,WeatherDisplay:10.37,2012-11-28 02:43:00,
2012-11-27 20:45:00,77.0,74.5,30.12,NE,45,2.0,8.0,92,0.00,CLR,,3.16,WeatherDisplay:10.37,2012-11-28 02:45:00,
2012-11-27 20:48:00,78.7,76.2,30.03,South,186,9.0,9.0,92,0.00,CLR,,0.16,WeatherDisplay:10.37,2012-11-28 02:48:00,
2012-11-27 20:50:00,77.0,74.5,30.12,NE,45,2.0,8.0,92,0.00,CLR,,3.16,WeatherDisplay:10.37,2012-11-28 02:50:00,
2012-11-27 20:53:00,78.8,76.3,30.03,SW,229,10.4,10.4,92,0.00,CLR,,0.16,WeatherDisplay:10.37,2012-11-28 02:53:00,
2012-11-27 20:55:00,77.0,74.5,30.12,NE,45,2.0,8.0,92,0.00,CLR,,3.16,WeatherDisplay:10.37,2012-11-28 02:55:00,
2012-11-27 20:58:00,78.9,76.4,30.03,WSW,242,6.9,6.9,92,0.00,CLR,,0.16,WeatherDisplay:10.37,2012-11-28 02:58:00,
2012-11-27 21:00:00,77.0,74.5,30.12,NE,45,2.0,8.0,92,0.00,CLR,,3.16,WeatherDisplay:10.37,2012-11-28 03:00:00,
2012-11-27 21:03:00,78.7,76.2,30.04,West,262,4.6,4.6,92,0.00,CLR,,0.16,WeatherDisplay:10.37,2012-11-28 03:03:00,
2012-11-27 21:08:00,78.5,76.0,30.04,West,264,3.0,3.0,92,0.00,CLR,,0.16,WeatherDisplay:10.37,2012-11-28 03:08:00,
2012-11-27 21:13:00,78.3,76.1,30.04,SW,236,3.5,3.5,93,0.00,CLR,,0.16,WeatherDisplay:10.37,2012-11-28 03:13:00,
2012-11-27 21:18:00,78.1,75.9,30.05,WSW,252,3.5,3.5,93,0.00,CLR,,0.16,WeatherDisplay:10.37,2012-11-28 03:18:00,
2012-11-27 21:23:00,78.0,75.8,30.05,WSW,245,2.3,2.3,93,0.00,CLR,,0.16,WeatherDisplay:10.37,2012-11-28 03:23:00,
2012-11-27 21:28:00,77.7,75.5,30.05,West,273,1.1,1.1,93,0.00,CLR,,0.16,WeatherDisplay:10.37,2012-11-28 03:28:00,
2012-11-27 21:33:00,77.6,75.4,30.05,West,271,2.3,2.3,93,0.00,CLR,,0.16,WeatherDisplay:10.37,2012-11-28 03:33:00,
2012-11-27 21:38:00,77.5,75.3,30.05,West,277,1.1,1.1,93,0.00,CLR,,0.16,WeatherDisplay:10.37,2012-11-28 03:38:00,
2012-11-27 21:43:00,77.4,75.5,30.06,WSW,248,2.3,2.3,94,0.00,CLR,,0.16,WeatherDisplay:10.37,2012-11-28 03:43:00,
2012-11-27 21:48:00,77.4,75.5,30.06,WNW,287,2.3,2.3,94,0.00,CLR,,0.16,WeatherDisplay:10.37,2012-11-28 03:48:00,
2012-11-27 21:53:00,77.4,75.5,30.06,WSW,250,2.3,2.3,94,0.00,CLR,,0.16,WeatherDisplay:10.37,2012-11-28 03:53:00,
2012-11-27 21:58:00,77.5,75.6,30.06,WSW,246,2.3,2.3,94,0.00,CLR,,0.16,WeatherDisplay:10.37,2012-11-28 03:58:00,
2012-11-27 22:03:00,77.4,75.5,30.05,West,266,2.3,2.3,94,0.00,CLR,,0.16,WeatherDisplay:10.37,2012-11-28 04:03:00,
2012-11-27 22:08:00,77.4,75.5,30.06,West,262,3.5,3.5,94,0.00,CLR,,0.16,WeatherDisplay:10.37,2012-11-28 04:08:00,
2012-11-27 22:13:00,77.3,75.4,30.05,WSW,257,3.5,3.5,94,0.00,CLR,,0.16,WeatherDisplay:10.37,2012-11-28 04:13:00,
2012-11-27 22:18:00,77.3,75.4,30.05,West,259,3.5,3.5,94,0.00,CLR,,0.16,WeatherDisplay:10.37,2012-11-28 04:18:00,
2012-11-27 22:24:00,77.3,75.4,30.05,WSW,240,2.3,2.3,94,0.00,CLR,,0.16,WeatherDisplay:10.37,2012-11-28 04:24:00,
2012-11-27 22:29:00,77.2,75.3,30.05,West,273,3.5,3.5,94,0.00,CLR,,0.16,WeatherDisplay:10.37,2012-11-28 04:29:00,
2012-11-27 22:34:00,77.2,75.3,30.05,WNW,285,2.0,2.0,94,0.00,CLR,,0.16,WeatherDisplay:10.37,2012-11-28 04:34:00,
2012-11-27 22:39:00,77.1,75.2,30.05,WSW,245,3.5,3.5,94,0.00,CLR,,0.16,WeatherDisplay:10.37,2012-11-28 04:39:00,
2012-11-27 22:44:00,77.1,75.2,30.05,WNW,286,3.5,3.5,94,0.00,CLR,,0.16,WeatherDisplay:10.37,2012-11-28 04:44:00,
2012-11-27 22:49:00,77.0,75.1,30.04,WNW,289,3.5,3.5,94,0.00,CLR,,0.16,WeatherDisplay:10.37,2012-11-28 04:49:00,
2012-11-27 22:54:00,77.0,75.1,30.04,West,281,2.3,2.3,94,0.00,CLR,,0.16,WeatherDisplay:10.37,2012-11-28 04:54:00,
2012-11-27 22:59:00,76.9,75.0,30.04,West,277,1.1,1.1,94,0.00,CLR,,0.16,WeatherDisplay:10.37,2012-11-28 04:59:00,
2012-11-27 23:00:00,76.9,75.0,30.04,West,273,1.1,1.1,94,0.00,CLR,,0.16,WeatherDisplay:10.37,2012-11-28 05:00:00,
2012-11-27 23:05:00,76.8,75.3,30.04,West,280,2.3,2.3,95,0.00,CLR,,0.16,WeatherDisplay:10.37,2012-11-28 05:05:00,
2012-11-27 23:10:00,76.8,75.3,30.03,West,269,3.5,3.5,95,0.00,CLR,,0.16,WeatherDisplay:10.37,2012-11-28 05:10:00,
2012-11-27 23:15:00,76.8,75.3,30.03,WSW,257,3.5,3.5,95,0.00,CLR,,0.16,WeatherDisplay:10.37,2012-11-28 05:15:00,
2012-11-27 23:20:00,76.8,75.3,30.03,West,266,2.0,2.0,95,0.00,CLR,,0.16,WeatherDisplay:10.37,2012-11-28 05:20:00,
2012-11-27 23:25:00,76.8,75.3,30.03,NW,307,3.5,3.5,95,0.00,CLR,,0.16,WeatherDisplay:10.37,2012-11-28 05:25:00,
2012-11-27 23:30:00,76.8,75.3,30.03,West,270,2.3,2.3,95,0.00,CLR,,0.16,WeatherDisplay:10.37,2012-11-28 05:30:00,
2012-11-27 23:35:00,76.8,75.3,30.03,WSW,246,2.3,2.3,95,0.00,CLR,,0.16,WeatherDisplay:10.37,2012-11-28 05:35:00,
2012-11-27 23:40:00,76.9,75.4,30.03,West,273,3.5,3.5,95,0.00,CLR,,0.16,WeatherDisplay:10.37,2012-11-28 05:40:00,
2012-11-27 23:45:00,77.0,75.5,30.02,West,264,1.0,1.0,95,0.00,CLR,,0.16,WeatherDisplay:10.37,2012-11-28 05:45:00,
2012-11-27 23:50:00,77.0,75.5,30.02,West,271,2.3,2.3,95,0.00,CLR,,0.16,WeatherDisplay:10.37,2012-11-28 05:50:00,
2012-11-27 23:55:00,76.9,75.4,30.02,WSW,250,2.3,2.3,95,0.00,CLR,,0.16,WeatherDisplay:10.37,2012-11-28 05:55:00,